| time (UTC) | temp F | wind direction | speed knots | gust knots | rain 1hr in | rain 24hr in | rain mn in | humidity % | barometer mb |
| 20260508182504 | 63 | 292 | 0.9 | 1.7 | 0.00 | 0.00 | 0.00 | 71 | 1013.8 |
| 20260508182002 | 63 | 292 | 0.9 | 1.7 | 0.00 | 0.00 | 0.00 | 70 | 1014.0 |
| 20260508180958 | 64 | 0.0 | 0.9 | 0.00 | 0.00 | 0.00 | 70 | 1013.7 | |
| 20260508175955 | 63 | 292 | 0.9 | 1.7 | 0.00 | 0.00 | 0.00 | 68 | 1013.9 |
| 20260508175011 | 63 | 292 | 0.9 | 1.7 | 0.00 | 0.00 | 0.00 | 69 | 1013.9 |
| 20260508173947 | 63 | 315 | 0.9 | 1.7 | 0.00 | 0.00 | 0.00 | 68 | 1013.8 |
| 20260508172943 | 64 | 292 | 1.7 | 2.6 | 0.00 | 0.00 | 0.00 | 67 | 1013.8 |
| 20260508171939 | 64 | 292 | 0.0 | 0.9 | 0.00 | 0.00 | 0.00 | 65 | 1013.8 |
| 20260508170936 | 64 | 292 | 1.7 | 2.6 | 0.00 | 0.00 | 0.00 | 65 | 1013.8 |
| 20260508165954 | 64 | 315 | 2.6 | 2.6 | 0.00 | 0.00 | 0.00 | 65 | 1013.6 |
| 20260508164930 | 63 | 315 | 1.7 | 2.6 | 0.00 | 0.00 | 0.00 | 65 | 1013.6 |
| 20260508163927 | 63 | 315 | 2.6 | 3.5 | 0.00 | 0.00 | 0.00 | 63 | 1013.6 |
| 20260508162923 | 63 | 315 | 2.6 | 3.5 | 0.00 | 0.00 | 0.00 | 62 | 1013.4 |
| 20260508161939 | 64 | 315 | 2.6 | 3.5 | 0.00 | 0.00 | 0.00 | 61 | 1013.6 |
| 20260508160916 | 64 | 292 | 5.2 | 7.8 | 0.00 | 0.00 | 0.00 | 59 | 1013.6 |
| 20260508155936 | 64 | 315 | 2.6 | 3.5 | 0.00 | 0.00 | 0.00 | 59 | 1013.6 |
| 20260508154910 | 65 | 292 | 2.6 | 5.2 | 0.00 | 0.00 | 0.00 | 57 | 1013.9 |
| 20260508153907 | 67 | 292 | 0.9 | 2.6 | 0.00 | 0.00 | 0.00 | 57 | 1014.0 |
| 20260508152904 | 68 | 315 | 1.7 | 2.6 | 0.00 | 0.00 | 0.00 | 62 | 1013.9 |
| 20260508151900 | 68 | 337 | 0.0 | 1.7 | 0.00 | 0.00 | 0.00 | 62 | 1014.1 |
| 20260508150857 | 69 | 270 | 0.9 | 2.6 | 0.00 | 0.00 | 0.00 | 63 | 1013.8 |
| 20260508145915 | 71 | 292 | 2.6 | 3.5 | 0.00 | 0.00 | 0.00 | 59 | 1013.8 |
| 20260508144849 | 71 | 292 | 0.0 | 0.9 | 0.00 | 0.00 | 0.00 | 57 | 1013.7 |
| 20260508143846 | 70 | 292 | 1.7 | 2.6 | 0.00 | 0.00 | 0.00 | 57 | 1014.0 |
| 20260508142842 | 71 | 292 | 0.9 | 1.7 | 0.00 | 0.00 | 0.00 | 57 | 1013.9 |
| 20260508141840 | 71 | 315 | 0.9 | 1.7 | 0.00 | 0.00 | 0.00 | 57 | 1013.9 |
| 20260508140836 | 70 | 112 | 0.9 | 2.6 | 0.00 | 0.00 | 0.00 | 58 | 1014.0 |
| 20260508135853 | 71 | 0.0 | 0.9 | 0.00 | 0.00 | 0.00 | 55 | 1014.0 | |
| 20260508134829 | 71 | 112 | 0.9 | 2.6 | 0.00 | 0.00 | 0.00 | 55 | 1014.1 |
| 20260508133828 | 70 | 112 | 0.9 | 1.7 | 0.00 | 0.00 | 0.00 | 57 | 1014.0 |
| 20260508132822 | 70 | 112 | 0.9 | 1.7 | 0.00 | 0.00 | 0.00 | 55 | 1014.2 |
| 20260508131821 | 71 | 315 | 0.9 | 1.7 | 0.00 | 0.00 | 0.00 | 56 | 1014.2 |
| 20260508130816 | 70 | 315 | 0.9 | 1.7 | 0.00 | 0.00 | 0.00 | 59 | 1014.1 |
| 20260508125812 | 70 | 315 | 0.9 | 2.6 | 0.00 | 0.00 | 0.00 | 61 | 1014.4 |
| 20260508124811 | 71 | 0.0 | 0.0 | 0.00 | 0.00 | 0.00 | 57 | 1014.5 | |
| 20260508123805 | 70 | 292 | 1.7 | 5.2 | 0.00 | 0.00 | 0.00 | 61 | 1014.3 |
| 20260508122802 | 70 | 112 | 0.9 | 3.5 | 0.00 | 0.00 | 0.00 | 60 | 1014.5 |
| 20260508121759 | 70 | 0.0 | 0.9 | 0.00 | 0.00 | 0.00 | 60 | 1014.2 | |
| 20260508120758 | 69 | 112 | 2.6 | 5.2 | 0.00 | 0.00 | 0.00 | 60 | 1014.7 |
| 20260508115753 | 70 | 112 | 1.7 | 2.6 | 0.00 | 0.00 | 0.00 | 60 | 1014.6 |
| 20260508114749 | 68 | 112 | 0.9 | 1.7 | 0.00 | 0.00 | 0.00 | 61 | 1014.5 |
| 20260508113745 | 68 | 135 | 2.6 | 7.0 | 0.00 | 0.00 | 0.00 | 62 | 1014.5 |
| 20260508112741 | 67 | 112 | 1.7 | 2.6 | 0.00 | 0.00 | 0.00 | 62 | 1014.8 |
| 20260508111739 | 68 | 112 | 0.0 | 0.9 | 0.00 | 0.00 | 0.00 | 62 | 1014.6 |
| 20260508110735 | 67 | 315 | 1.7 | 3.5 | 0.00 | 0.00 | 0.00 | 62 | 1014.7 |
| 20260508105751 | 69 | 202 | 0.9 | 1.7 | 0.00 | 0.00 | 0.00 | 60 | 1014.7 |
| 20260508104729 | 67 | 292 | 1.7 | 3.5 | 0.00 | 0.00 | 0.00 | 62 | 1014.8 |
| 20260508103728 | 68 | 45 | 0.9 | 5.2 | 0.00 | 0.00 | 0.00 | 60 | 1014.7 |
| 20260508102721 | 66 | 112 | 1.7 | 2.6 | 0.00 | 0.00 | 0.00 | 64 | 1015.1 |
| 20260508101718 | 66 | 112 | 1.7 | 3.5 | 0.00 | 0.00 | 0.00 | 64 | 1015.1 |
| 20260508100717 | 67 | 67 | 2.6 | 5.2 | 0.00 | 0.00 | 0.00 | 64 | 1015.1 |
| 20260508095711 | 66 | 90 | 0.9 | 5.2 | 0.00 | 0.00 | 0.00 | 65 | 1015.1 |
| 20260508094706 | 66 | 90 | 2.6 | 7.0 | 0.00 | 0.00 | 0.00 | 65 | 1014.9 |
| 20260508093703 | 64 | 135 | 2.6 | 5.2 | 0.00 | 0.00 | 0.00 | 68 | 1015.1 |
| 20260508092659 | 64 | 45 | 0.9 | 5.2 | 0.00 | 0.00 | 0.00 | 66 | 1015.2 |
| 20260508091657 | 66 | 292 | 0.9 | 1.7 | 0.00 | 0.00 | 0.00 | 66 | 1014.8 |
| 20260508090653 | 65 | 67 | 2.6 | 5.2 | 0.00 | 0.00 | 0.00 | 66 | 1015.1 |
| 20260508085649 | 64 | 112 | 0.9 | 2.6 | 0.00 | 0.00 | 0.00 | 67 | 1015.0 |
| 20260508084646 | 64 | 292 | 1.7 | 5.2 | 0.00 | 0.00 | 0.00 | 67 | 1015.2 |
| 20260508083643 | 64 | 292 | 1.7 | 2.6 | 0.00 | 0.00 | 0.00 | 66 | 1015.1 |
| 20260508082640 | 64 | 112 | 0.9 | 3.5 | 0.00 | 0.00 | 0.00 | 67 | 1015.1 |
| 20260508081635 | 63 | 112 | 0.0 | 0.9 | 0.00 | 0.00 | 0.00 | 68 | 1015.0 |
| 20260508080631 | 62 | 315 | 0.9 | 1.7 | 0.00 | 0.00 | 0.00 | 69 | 1015.0 |
| 20260508075628 | 64 | 112 | 0.0 | 0.9 | 0.00 | 0.00 | 0.00 | 65 | 1015.0 |
| 20260508074625 | 68 | 270 | 0.0 | 0.9 | 0.00 | 0.00 | 0.00 | 61 | 1014.8 |
| 20260508073620 | 67 | 292 | 0.0 | 0.9 | 0.00 | 0.00 | 0.00 | 63 | 1014.8 |
| 20260508072658 | 67 | 292 | 0.0 | 1.7 | 0.00 | 0.00 | 0.00 | 64 | 1014.8 |
| 20260508071654 | 67 | 0.0 | 0.9 | 0.00 | 0.00 | 0.00 | 63 | 1014.8 | |
| 20260508070612 | 68 | 0.0 | 0.0 | 0.00 | 0.00 | 0.00 | 62 | 1014.7 | |
| 20260508065608 | 67 | 292 | 0.0 | 0.9 | 0.00 | 0.00 | 0.00 | 65 | 1014.9 |
| 20260508064605 | 66 | 292 | 0.9 | 0.9 | 0.00 | 0.00 | 0.00 | 65 | 1014.5 |
| 20260508063601 | 65 | 292 | 0.0 | 0.9 | 0.00 | 0.00 | 0.00 | 69 | 1014.4 |
| 20260508062620 | 64 | 292 | 0.0 | 1.7 | 0.00 | 0.00 | 0.00 | 68 | 1014.2 |
| 20260508061557 | 62 | 292 | 0.9 | 1.7 | 0.00 | 0.00 | 0.00 | 71 | 1014.0 |
| 20260508060553 | 62 | 292 | 0.0 | 1.7 | 0.00 | 0.00 | 0.00 | 73 | 1013.9 |
| 20260508055609 | 60 | 292 | 0.9 | 1.7 | 0.00 | 0.00 | 0.00 | 74 | 1014.1 |
| 20260508054546 | 59 | 292 | 0.0 | 0.9 | 0.00 | 0.00 | 0.00 | 76 | 1013.8 |
| 20260508053542 | 57 | 292 | 0.9 | 1.7 | 0.00 | 0.00 | 0.00 | 78 | 1013.8 |
| 20260508052538 | 57 | 292 | 0.9 | 1.7 | 0.00 | 0.00 | 0.00 | 79 | 1013.8 |
| 20260508051553 | 55 | 315 | 1.7 | 2.6 | 0.00 | 0.00 | 0.00 | 81 | 1013.5 |
| 20260508050529 | 55 | 315 | 1.7 | 2.6 | 0.00 | 0.00 | 0.00 | 82 | 1013.4 |
| 20260508045526 | 54 | 315 | 0.9 | 1.7 | 0.00 | 0.00 | 0.00 | 83 | 1013.3 |
| 20260508044605 | 54 | 315 | 0.9 | 1.7 | 0.00 | 0.00 | 0.00 | 85 | 1013.4 |
| 20260508043518 | 53 | 292 | 0.9 | 1.7 | 0.00 | 0.00 | 0.00 | 86 | 1013.6 |
| 20260508042515 | 53 | 315 | 0.0 | 0.9 | 0.00 | 0.00 | 0.00 | 86 | 1013.2 |
| 20260508041511 | 53 | 0.0 | 0.0 | 0.00 | 0.00 | 0.00 | 86 | 1013.4 | |
| 20260508040510 | 53 | 0.0 | 0.9 | 0.00 | 0.00 | 0.00 | 86 | 1013.4 | |
| 20260508035527 | 53 | 0.0 | 0.9 | 0.00 | 0.00 | 0.00 | 86 | 1013.3 | |
| 20260508034504 | 53 | 315 | 1.7 | 2.6 | 0.00 | 0.00 | 0.00 | 86 | 1013.0 |
| 20260508033502 | 53 | 292 | 0.9 | 1.7 | 0.00 | 0.00 | 0.00 | 86 | 1013.2 |
| 20260508032459 | 53 | 292 | 0.0 | 0.9 | 0.00 | 0.00 | 0.00 | 85 | 1013.0 |
| 20260508031456 | 54 | 292 | 0.9 | 1.7 | 0.00 | 0.01 | 0.00 | 85 | 1013.3 |
| 20260508030513 | 54 | 292 | 0.0 | 0.9 | 0.00 | 0.01 | 0.00 | 84 | 1013.2 |
| 20260508025449 | 54 | 292 | 0.9 | 1.7 | 0.00 | 0.01 | 0.00 | 85 | 1013.0 |
| 20260508024445 | 53 | 315 | 0.9 | 1.7 | 0.00 | 0.01 | 0.00 | 85 | 1012.9 |
| 20260508023504 | 53 | 315 | 2.6 | 2.6 | 0.00 | 0.01 | 0.00 | 85 | 1013.0 |
| 20260508022438 | 54 | 315 | 1.7 | 3.5 | 0.00 | 0.01 | 0.00 | 85 | 1013.2 |
| 20260508021435 | 54 | 315 | 0.9 | 2.6 | 0.00 | 0.01 | 0.00 | 84 | 1013.2 |
| 20260508020451 | 54 | 292 | 1.7 | 2.6 | 0.00 | 0.01 | 0.00 | 84 | 1013.2 |
| 20260508015428 | 54 | 292 | 0.9 | 1.7 | 0.00 | 0.01 | 0.00 | 84 | 1013.3 |
| 20260508014444 | 54 | 292 | 1.7 | 3.5 | 0.00 | 0.01 | 0.00 | 83 | 1013.0 |
| 20260508013421 | 54 | 270 | 0.9 | 1.7 | 0.00 | 0.01 | 0.00 | 83 | 1012.9 |
| 20260508012417 | 53 | 157 | 3.5 | 8.7 | 0.00 | 0.01 | 0.00 | 84 | 1013.2 |
| 20260508011413 | 53 | 315 | 0.9 | 1.7 | 0.00 | 0.01 | 0.00 | 85 | 1012.5 |
| 20260508010430 | 53 | 315 | 0.9 | 1.7 | 0.00 | 0.01 | 0.00 | 85 | 1012.8 |
| 20260508005406 | 53 | 292 | 0.9 | 1.7 | 0.00 | 0.01 | 0.00 | 85 | 1012.9 |
| 20260508004403 | 54 | 0.0 | 0.0 | 0.00 | 0.02 | 0.00 | 85 | 1012.8 | |
| 20260508003400 | 53 | 0.0 | 0.0 | 0.00 | 0.02 | 0.00 | 85 | 1013.0 | |
| 20260508002356 | 53 | 0.0 | 0.0 | 0.00 | 0.02 | 0.00 | 85 | 1012.8 | |
| 20260508001412 | 54 | 0.0 | 0.0 | 0.00 | 0.02 | 0.00 | 84 | 1013.2 | |
| 20260508000350 | 54 | 0.0 | 0.0 | 0.00 | 0.02 | 0.00 | 84 | 1012.9 | |
| 20260507235345 | 55 | 0.0 | 0.0 | 0.00 | 0.02 | 0.00 | 84 | 1013.0 | |
| 20260507234343 | 55 | 0.0 | 0.0 | 0.00 | 0.02 | 0.00 | 84 | 1012.9 | |
| 20260507233338 | 55 | 0.0 | 0.0 | 0.00 | 0.02 | 0.00 | 83 | 1012.9 | |
| 20260507232334 | 55 | 0.0 | 0.0 | 0.00 | 0.02 | 0.00 | 82 | 1013.3 | |
| 20260507231333 | 55 | 0.0 | 0.0 | 0.00 | 0.02 | 0.00 | 81 | 1012.9 | |
| 20260507230326 | 55 | 292 | 0.0 | 0.9 | 0.00 | 0.02 | 0.00 | 81 | 1012.9 |
| 20260507225323 | 56 | 0.0 | 0.0 | 0.00 | 0.02 | 0.00 | 82 | 1012.9 | |
| 20260507224319 | 56 | 292 | 0.0 | 0.9 | 0.00 | 0.02 | 0.00 | 81 | 1013.2 |
| 20260507223316 | 56 | 292 | 0.0 | 1.7 | 0.00 | 0.02 | 0.00 | 81 | 1013.2 |
| 20260507222312 | 56 | 292 | 0.0 | 1.7 | 0.00 | 0.02 | 0.00 | 81 | 1012.9 |
| 20260507221308 | 56 | 292 | 0.9 | 1.7 | 0.00 | 0.02 | 0.00 | 81 | 1012.9 |
| 20260507220304 | 56 | 0.0 | 0.0 | 0.00 | 0.02 | 0.00 | 82 | 1013.0 | |
| 20260507215256 | 56 | 0.0 | 0.0 | 0.00 | 0.02 | 0.02 | 83 | 1013.2 | |
| 20260507214332 | 57 | 0.0 | 0.0 | 0.00 | 0.02 | 0.02 | 81 | 1012.7 | |
| 20260507213249 | 58 | 0.0 | 0.0 | 0.00 | 0.02 | 0.02 | 79 | 1012.6 | |
| 20260507212247 | 59 | 0.0 | 0.0 | 0.00 | 0.02 | 0.02 | 78 | 1012.6 | |
| 20260507211242 | 59 | 0.0 | 0.0 | 0.00 | 0.02 | 0.02 | 77 | 1012.7 | |
| 20260507210238 | 59 | 0.0 | 0.0 | 0.00 | 0.02 | 0.02 | 76 | 1012.8 | |
| 20260507205315 | 60 | 0.0 | 0.0 | 0.00 | 0.02 | 0.02 | 75 | 1012.6 | |
| 20260507204312 | 61 | 0.0 | 0.0 | 0.00 | 0.02 | 0.02 | 74 | 1012.4 | |
| 20260507203227 | 61 | 315 | 0.0 | 1.7 | 0.00 | 0.02 | 0.02 | 73 | 1012.5 |
| 20260507202223 | 60 | 0.0 | 0.0 | 0.00 | 0.02 | 0.02 | 74 | 1012.4 | |
| 20260507201217 | 60 | 0.0 | 0.0 | 0.00 | 0.02 | 0.02 | 73 | 1012.0 | |
| 20260507200213 | 61 | 0.0 | 0.0 | 0.00 | 0.02 | 0.02 | 73 | 1012.1 | |
| 20260507195210 | 61 | 0.0 | 0.0 | 0.00 | 0.02 | 0.02 | 72 | 1011.9 | |
| 20260507194206 | 61 | 0.0 | 0.0 | 0.00 | 0.02 | 0.02 | 70 | 1011.9 | |
| 20260507193157 | 62 | 0.0 | 0.0 | 0.00 | 0.02 | 0.02 | 68 | 1011.6 | |
| 20260507192213 | 63 | 0.0 | 0.0 | 0.00 | 0.02 | 0.02 | 65 | 1011.5 | |
| 20260507191149 | 64 | 0.0 | 0.0 | 0.00 | 0.02 | 0.02 | 60 | 1011.3 | |
| 20260507190147 | 64 | 0.0 | 0.0 | 0.00 | 0.02 | 0.02 | 60 | 1011.1 | |
| 20260507185143 | 65 | 0.0 | 0.0 | 0.00 | 0.02 | 0.02 | 59 | 1011.1 | |
| 20260507184141 | 65 | 0.0 | 0.0 | 0.00 | 0.02 | 0.02 | 56 | 1011.0 | |
| 20260507183135 | 65 | 0.0 | 1.7 | 0.00 | 0.02 | 0.02 | 54 | 1011.2 |